[[{"header":{"parameterUnit":"m.s-1","parameterCategory":2,"la1":30.2991,"la2":30.254,"lo1":-89.0895,"lo2":-89.0444,"dy":0.0017,"dx":0.0017,"nx":28,"ny":28,"refTime":"2025-07-16T03:00:00:Z","depth":"0","parameterNumber":2,"parameterNumberName":"U-component_of_CURRENTS"},"data":[0,0,0,0,0,0,0,0,0,0,0,0,0,0,0,0,0,0,0,0,0,0,0,0,0,0,0,0,0,0,0,0,0,0,0,0,0,0,0,0,0,0,0,0,0,0,0,0,0,0,0,0,0,0,0,0,0,0,0.1778,0.1779,0,0.1908,0.1909,0.1911,0.1991,0.1991,0.1992,0.1992,0.2039,0.2039,0.204,0,0,0,0,0,0,0,0,0,0,0,0,0,0.1683,0.1683,0.1778,0.1779,0.1781,0.1908,0.1909,0.1911,0.1991,0.1991,0.1992,0.1993,0.2038,0.2039,0.204,0,0,0,0,0,0,0,0,0,0,0,0,0,0.1758,0.1684,0.1777,0.1837,0.1843,0.1907,0.1909,0.1912,0.1991,0.1991,0.1992,0.1993,0.2038,0.2039,0.204,0.2032,0,0,0.2044,0.2044,0,0,0,0,0,0,0,0,0.1754,0.1762,0.1826,0.1833,0.184,0.1935,0.1893,0.1948,0.1991,0.1934,0.1992,0.1993,0.1996,0.2001,0.2024,0.2035,0.2037,0.2044,0.2045,0.2045,0.2045,0,0,0,0,0,0,0,0.1748,0.1757,0.1828,0.1828,0.1837,0.1886,0.1897,0.1905,0.1957,0.1939,0.1945,0.1961,0.1999,0.2022,0.2025,0.2037,0.2044,0.2045,0.2046,0.2046,0.2132,0.2133,0,0,0,0,0,0,0.1729,0.1751,0.1824,0.1832,0.1799,0.1887,0.1899,0.1903,0.1959,0.1969,0.196,0.1964,0.202,0.2024,0.2027,0.2057,0.2045,0.2046,0.2047,0.213,0.2132,0.2134,0,0,0,0,0,0,0.1726,0.1733,0.1819,0.1796,0.1811,0.1887,0.1892,0.1905,0.1933,0.1976,0.1985,0.1974,0.2021,0.2025,0.2072,0.2058,0.2047,0.2048,0.2128,0.2131,0.2133,0.2094,0,0,0,0,0,0,0.1722,0.1731,0.1724,0.1794,0.1811,0.1871,0.1891,0.1907,0.1942,0.1948,0.1991,0.1996,0.2022,0.207,0.2073,0.2059,0.2049,0.2126,0.2129,0.2132,0.2093,0.2095,0.2096,0,0,0,0,0,0.1718,0.1715,0.1722,0.1732,0.1799,0.1872,0.1886,0.1942,0.1941,0.1966,0.2007,0.1995,0.2091,0.2073,0.2075,0.2061,0.2125,0.2129,0.2132,0.2092,0.2094,0.2096,0,0,0,0,0,0,0.1685,0.1725,0.1735,0.1746,0.1807,0.1886,0.1901,0.1935,0.1986,0.1976,0.2017,0.2027,0.2058,0.2078,0.2057,0.2102,0.2104,0.2108,0.2073,0.2075,0.2076,0.2074,0.205,0,0,0,0,0,0.1667,0.1663,0.173,0.1739,0.1759,0.1823,0.1853,0.189,0.1945,0.1968,0.2007,0.2042,0.2073,0.209,0.2121,0.2142,0.2182,0.2139,0.214,0.2141,0.2146,0.2199,0.2204,0.2146,0.2146,0.2146,0,0,0.1659,0.1676,0.1678,0.173,0.1767,0.1793,0.1843,0.1882,0.1904,0.1959,0.1996,0.2041,0.2083,0.2118,0.2132,0.2132,0.2187,0.2146,0.2145,0.215,0.2203,0.2208,0.2213,0.2148,0.2148,0.2147,0,0,0.1641,0.165,0.1642,0.1677,0.1726,0.1768,0.1775,0.1852,0.1886,0.1932,0.1978,0.2035,0.2073,0.2124,0.2144,0.2172,0.219,0.217,0.217,0.222,0.2225,0.2229,0.2313,0.2325,0.2172,0.2172,0.2172,0,0.1621,0.1628,0.166,0.1662,0.1688,0.1748,0.1762,0.1799,0.1889,0.1923,0.1935,0.2039,0.2075,0.2129,0.2156,0.2169,0.2215,0.215,0.2219,0.2224,0.2229,0.2313,0.2327,0.217,0.217,0.217,0.2171,0,0.1616,0.1609,0.1609,0.162,0.1652,0.1678,0.173,0.1766,0.1802,0.1858,0.1928,0.2004,0.2074,0.2092,0.2132,0.219,0.2219,0.2207,0.2203,0.2232,0.232,0.2335,0.2168,0.2169,0.2169,0.2169,0,0,0.1606,0.1602,0.1602,0.1595,0.1632,0.1663,0.1679,0.1747,0.1761,0.1844,0.1898,0.1979,0.2037,0.2069,0.2127,0.2186,0.2278,0.2216,0.222,0.2282,0.2419,0.2566,0.2597,0.227,0.2272,0.2273,0.2475,0,0.1597,0.1583,0.1593,0.1588,0.1591,0.163,0.1645,0.17,0.1752,0.1818,0.1908,0.1971,0.2017,0.2057,0.2124,0.2249,0.2312,0.2226,0.24,0.2406,0.2516,0.2617,0.2696,0.2894,0.249,0.2492,0.2494,0,0.1608,0.1589,0.158,0.1567,0.1573,0.1576,0.1617,0.1641,0.1728,0.1769,0.1851,0.1925,0.2058,0.2066,0.2277,0.2221,0.2317,0.2402,0.2411,0.257,0.258,0.2799,0.2936,0.2807,0.2517,0.2515,0.2514,0,0.1614,0.1591,0.158,0.1579,0.1572,0.1574,0.1584,0.1638,0.1678,0.1752,0.1816,0.1929,0.2048,0.215,0.2368,0.2313,0.2607,0.254,0.2758,0.277,0.2888,0.2908,0.2907,0.2657,0.2657,0.2656,0.2656,0,0.1623,0.161,0.1574,0.1565,0.1551,0.1554,0.1566,0.1585,0.1651,0.1742,0.1803,0.1932,0.2078,0.2275,0.2387,0.2681,0.2626,0.2802,0.2844,0.2883,0.29,0.2832,0.2742,0.2664,0.2662,0.2661,0.266,0,0.1644,0.1621,0.1598,0.1564,0.1552,0.1548,0.1562,0.1593,0.1637,0.1764,0.1803,0.1993,0.2271,0.2441,0.2678,0.2772,0.293,0.3066,0.3136,0.3183,0.3236,0.3144,0.3089,0.3036,0.332,0.3325,0.3329,0,0.1655,0.1644,0.1598,0.1593,0.1577,0.1566,0.158,0.159,0.165,0.1842,0.1941,0.2215,0.2478,0.2895,0.3109,0.3358,0.3161,0.3521,0.342,0.3297,0.3222,0.2965,0.2902,0.3566,0.3572,0.3576,0.358,0,0.1676,0.1663,0.1648,0.1636,0.1632,0.1631,0.1659,0.17,0.1782,0.1913,0.2181,0.2397,0.2851,0.3187,0.3505,0.3657,0.3381,0.3628,0.3467,0.3415,0.3168,0.312,0.3374,0.3623,0.3618,0.3615,0.3613,0.3611,0.1707,0.1707,0.1702,0.1702,0.1698,0.1732,0.1756,0.1841,0.1965,0.2187,0.2371,0.2708,0.313,0.3635,0.3771,0.3956,0.373,0.387,0.3775,0.3527,0.3447,0.383,0.4137,0.4135,0.4134,0.4133,0.4133,0,0.1759,0.1772,0.1777,0.1779,0.1803,0.1782,0.1845,0.19,0.2082,0.2318,0.2571,0.3057,0.3459,0.3757,0.4089,0.4053,0.3868,0.3939,0.355,0.3488,0.3845,0.3828,0.4122,0.4122,0.4122,0.4122,0.4122,0.4122,0.1793,0.1822,0.1828,0.1882,0.189,0.1923,0.1961,0.2062,0.2209,0.2522,0.2779,0.301,0.3378,0.3806,0.3966,0.3954,0.3597,0.3541,0.3355,0.357,0.3551,0.3532,0.349,0.3709,0.3708,0.2939,0.2933,0.2929]},{"header":{"parameterUnit":"m.s-1","parameterCategory":2,"la1":30.2991,"la2":30.254,"lo1":-89.0895,"lo2":-89.0444,"dy":0.0017,"dx":0.0017,"nx":28,"ny":28,"refTime":"2025-07-16T03:00:00:Z","depth":"0","parameterNumber":3,"parameterNumberName":"V-component_of_CURRENTS"},"data":[0,0,0,0,0,0,0,0,0,0,0,0,0,0,0,0,0,0,0,0,0,0,0,0,0,0,0,0,0,0,0,0,0,0,0,0,0,0,0,0,0,0,0,0,0,0,0,0,0,0,0,0,0,0,0,0,0,0,-0.019,-0.0191,0,-0.0272,-0.0273,-0.0274,-0.0348,-0.0349,-0.0349,-0.0349,-0.0519,-0.0523,-0.0528,0,0,0,0,0,0,0,0,0,0,0,0,0,-0.013,-0.0131,-0.019,-0.0191,-0.0191,-0.0271,-0.0273,-0.0274,-0.0348,-0.0349,-0.0349,-0.035,-0.0518,-0.0523,-0.0528,0,0,0,0,0,0,0,0,0,0,0,0,0,-0.0183,-0.0131,-0.019,-0.0234,-0.0238,-0.0271,-0.0273,-0.0275,-0.0348,-0.0349,-0.0349,-0.035,-0.0517,-0.0523,-0.0529,-0.0554,0,0,-0.0548,-0.055,0,0,0,0,0,0,0,0,-0.0179,-0.0185,-0.0227,-0.0231,-0.0236,-0.0296,-0.0314,-0.0371,-0.0348,-0.0312,-0.0349,-0.035,-0.0449,-0.0461,-0.0481,-0.0562,-0.0569,-0.0548,-0.0552,-0.0555,-0.0556,0,0,0,0,0,0,0,-0.0176,-0.0182,-0.0228,-0.0227,-0.0233,-0.026,-0.0268,-0.0325,-0.0381,-0.0315,-0.0319,-0.032,-0.0453,-0.0474,-0.0485,-0.0572,-0.0548,-0.0553,-0.0557,-0.056,-0.0679,-0.0679,0,0,0,0,0,0,-0.0153,-0.0179,-0.0225,-0.023,-0.0203,-0.026,-0.027,-0.028,-0.0379,-0.0393,-0.0319,-0.0323,-0.0464,-0.0478,-0.0492,-0.051,-0.0554,-0.056,-0.0564,-0.068,-0.0679,-0.0678,0,0,0,0,0,0,-0.0152,-0.0157,-0.0222,-0.0201,-0.0211,-0.0259,-0.0271,-0.0281,-0.03,-0.038,-0.0397,-0.0327,-0.0465,-0.0483,-0.0537,-0.0518,-0.0563,-0.0569,-0.068,-0.0679,-0.0679,-0.0558,0,0,0,0,0,0,-0.015,-0.0156,-0.0159,-0.02,-0.0211,-0.0233,-0.027,-0.0282,-0.0297,-0.0303,-0.0392,-0.0409,-0.0467,-0.0527,-0.0543,-0.0527,-0.0574,-0.0681,-0.068,-0.0679,-0.0563,-0.0553,-0.0545,0,0,0,0,0,-0.0148,-0.0149,-0.0159,-0.0164,-0.0212,-0.0232,-0.0241,-0.0281,-0.0297,-0.0301,-0.036,-0.0406,-0.0531,-0.0531,-0.055,-0.0536,-0.0681,-0.068,-0.0679,-0.0567,-0.0555,-0.0546,0,0,0,0,0,0,-0.013,-0.0157,-0.0169,-0.018,-0.0197,-0.0242,-0.0249,-0.0271,-0.032,-0.0327,-0.0405,-0.0426,-0.0462,-0.0518,-0.0516,-0.0568,-0.0612,-0.0614,-0.052,-0.051,-0.0501,-0.0478,-0.0579,0,0,0,0,0,-0.0122,-0.0129,-0.0156,-0.0163,-0.0168,-0.0204,-0.0217,-0.0238,-0.0282,-0.0304,-0.0364,-0.0426,-0.0471,-0.0505,-0.0558,-0.0593,-0.0611,-0.0595,-0.0586,-0.0578,-0.0572,-0.0564,-0.0553,-0.0674,-0.0674,-0.0674,0,0,-0.0115,-0.0131,-0.0136,-0.0158,-0.0177,-0.018,-0.0216,-0.0225,-0.023,-0.0316,-0.0348,-0.0397,-0.0472,-0.0505,-0.0526,-0.0551,-0.0552,-0.0577,-0.0569,-0.0567,-0.0561,-0.0549,-0.0538,-0.0673,-0.0674,-0.0674,0,0,-0.0104,-0.0118,-0.0119,-0.0126,-0.014,-0.0157,-0.0152,-0.0188,-0.0208,-0.0241,-0.0292,-0.0323,-0.0415,-0.0448,-0.0481,-0.0457,-0.05,-0.0479,-0.0423,-0.0414,-0.0403,-0.0394,-0.039,-0.0381,-0.048,-0.048,-0.0479,0,-0.0093,-0.0103,-0.0121,-0.0119,-0.0116,-0.014,-0.0131,-0.0151,-0.02,-0.0203,-0.024,-0.032,-0.0384,-0.0399,-0.0396,-0.0434,-0.044,-0.0453,-0.0399,-0.039,-0.0383,-0.0381,-0.0373,-0.0474,-0.0474,-0.0475,-0.0475,0,-0.0081,-0.0086,-0.0083,-0.0086,-0.0082,-0.0079,-0.0091,-0.0093,-0.0116,-0.0136,-0.0153,-0.0227,-0.0274,-0.0292,-0.0347,-0.0323,-0.0347,-0.0379,-0.0416,-0.0363,-0.0365,-0.0359,-0.0465,-0.0467,-0.0469,-0.047,0,0,-0.0066,-0.0075,-0.0075,-0.0068,-0.0062,-0.0059,-0.0042,-0.0036,-0.0014,-0.0061,-0.0039,-0.0114,-0.0141,-0.0179,-0.0231,-0.0232,-0.0189,-0.0283,-0.0285,-0.0262,-0.0166,-0.0193,-0.019,-0.0206,-0.0204,-0.0203,-0.0183,0,-0.0052,-0.0047,-0.0048,-0.0027,-0.0019,-0.0011,0.0009,0.002,0.0019,0.0033,-0.0008,-0.0022,-0.0101,-0.0113,-0.0123,-0.0169,-0.0169,-0.0191,-0.0237,-0.0239,-0.0255,-0.0182,-0.015,-0.013,-0.0178,-0.0177,-0.0176,0,-0.0034,-0.0037,-0.0019,0.0006,0.0014,0.0028,0.0081,0.0096,0.0126,0.0127,0.0126,0.0094,0.0083,0.0011,-0.0028,-0.0037,-0.0095,-0.0132,-0.0132,-0.0197,-0.0254,-0.0197,-0.0118,-0.0286,-0.0167,-0.0168,-0.0168,0,-0.0011,-0.0007,0.0007,0.0014,0.0037,0.0058,0.0078,0.0121,0.0157,0.0194,0.0233,0.0206,0.0205,0.0143,0.0048,0.0017,0.0018,-0.0037,-0.0113,-0.0116,-0.0118,-0.0124,-0.0193,-0.0056,-0.0056,-0.0056,-0.0056,0,0.0014,0.0028,0.0012,0.0022,0.0055,0.0073,0.0131,0.0159,0.022,0.0296,0.0275,0.0336,0.024,0.0222,0.0114,0.0032,0.0066,-0.0081,-0.0103,-0.0077,-0.0079,-0.0254,-0.0378,-0.0055,-0.0055,-0.0055,-0.0055,0,0.0051,0.0038,0.0055,0.0061,0.0067,0.0095,0.0156,0.0213,0.0265,0.0375,0.0396,0.0442,0.0438,0.0336,0.0254,0.0127,-0.0052,-0.0005,0.0029,0.001,-0.0235,-0.0354,-0.0461,-0.0544,-0.0075,-0.0075,-0.0076,0,0.0083,0.0086,0.008,0.0098,0.0101,0.0136,0.0182,0.0227,0.0306,0.0452,0.0523,0.0561,0.0633,0.0505,0.0304,0.0142,-0.004,0.0018,-0.0048,-0.0225,-0.0373,-0.0453,-0.0522,0.0002,0.0002,0.0002,0.0002,0,0.0141,0.0126,0.013,0.0153,0.0185,0.0235,0.0301,0.0369,0.0472,0.0591,0.0767,0.0845,0.0745,0.0644,0.0393,0.0239,-0.0111,0.0015,-0.0162,-0.0311,-0.0406,-0.0503,-0.0049,0.0005,0.0004,0.0004,0.0004,0.0004,0.0192,0.02,0.0199,0.023,0.0273,0.0365,0.0442,0.0552,0.0709,0.0958,0.098,0.1192,0.0971,0.0663,0.0389,-0.0074,-0.0114,-0.0213,-0.0336,-0.0395,-0.0498,-0.0049,-0.0033,-0.0033,-0.0033,-0.0034,-0.0034,0,0.026,0.0261,0.0291,0.034,0.0418,0.042,0.0558,0.0683,0.091,0.1161,0.1352,0.1445,0.1109,0.0713,0.0091,-0.0314,-0.0481,-0.0551,-0.0655,-0.0705,-0.028,-0.03,-0.0348,-0.0348,-0.0347,-0.0347,-0.0347,-0.0347,0.0301,0.0331,0.0335,0.0469,0.0521,0.0656,0.0752,0.0955,0.1161,0.1543,0.1768,0.1905,0.161,0.0409,-0.0427,-0.0648,-0.0956,-0.1033,-0.12,-0.0919,-0.0897,-0.0875,-0.0922,-0.1098,-0.1099,-0.1542,-0.1547,-0.155]}],[{"header":{"parameterUnit":"m.s-1","parameterCategory":2,"la1":30.2991,"la2":30.254,"lo1":-89.0895,"lo2":-89.0444,"dy":0.0017,"dx":0.0017,"nx":28,"ny":28,"refTime":"2025-07-16T03:00:00:Z","depth":"2","parameterNumber":2,"parameterNumberName":"U-component_of_CURRENTS"},"data":[0,0,0,0,0,0,0,0,0,0,0,0,0,0,0,0,0,0,0,0,0,0,0,0,0,0,0,0,0,0,0,0,0,0,0,0,0,0,0,0,0,0,0,0,0,0,0,0,0,0,0,0,0,0,0,0,0,0,-0.0202,-0.0201,0,-0.0173,-0.0173,-0.0173,-0.0157,-0.0157,-0.0157,-0.0156,-0.0102,-0.0101,-0.01,0,0,0,0,0,0,0,0,0,0,0,0,0,-0.0246,-0.0245,-0.0202,-0.0201,-0.0201,-0.0173,-0.0173,-0.0173,-0.0157,-0.0157,-0.0157,-0.0156,-0.0102,-0.0101,-0.01,0,0,0,0,0,0,0,0,0,0,0,0,0,-0.0226,-0.0245,-0.0202,-0.0187,-0.0185,-0.0173,-0.0173,-0.0173,-0.0157,-0.0157,-0.0156,-0.0156,-0.0103,-0.0101,-0.01,-0.01,0,0,-0.0094,-0.0094,0,0,0,0,0,0,0,0,-0.0227,-0.0225,-0.019,-0.0188,-0.0186,-0.0165,-0.0168,-0.0146,-0.0158,-0.0172,-0.0156,-0.0156,-0.0119,-0.0116,-0.0117,-0.0097,-0.0095,-0.0094,-0.0093,-0.0093,-0.0092,0,0,0,0,0,0,0,-0.0229,-0.0226,-0.0194,-0.0189,-0.0187,-0.0182,-0.0179,-0.0164,-0.0151,-0.017,-0.0168,-0.016,-0.0118,-0.0119,-0.0115,-0.0094,-0.0094,-0.0093,-0.0092,-0.0091,-0.0008,-0.0007,0,0,0,0,0,0,-0.0226,-0.0227,-0.0195,-0.0193,-0.0202,-0.0181,-0.0178,-0.0175,-0.0151,-0.0147,-0.016,-0.0159,-0.0122,-0.0117,-0.0113,-0.0061,-0.0093,-0.0091,-0.009,-0.0009,-0.0008,-0.0006,0,0,0,0,0,0,-0.0227,-0.0223,-0.0196,-0.0206,-0.0202,-0.0181,-0.0178,-0.0175,-0.0154,-0.0143,-0.0138,-0.014,-0.0121,-0.0116,-0.0091,-0.0061,-0.009,-0.0089,-0.001,-0.0009,-0.0007,0.0011,0,0,0,0,0,0,-0.0228,-0.0224,-0.0216,-0.0206,-0.0201,-0.0191,-0.0178,-0.0174,-0.0149,-0.0147,-0.0125,-0.012,-0.012,-0.0093,-0.0089,-0.0059,-0.0087,-0.0012,-0.001,-0.0007,0.0009,0.0013,0.0017,0,0,0,0,0,-0.023,-0.024,-0.0216,-0.0211,-0.0192,-0.0191,-0.0189,-0.0174,-0.0149,-0.0151,-0.0127,-0.012,-0.0075,-0.0092,-0.0087,-0.0055,-0.0013,-0.001,-0.0008,0.0007,0.0012,0.0017,0,0,0,0,0,0,-0.0256,-0.0238,-0.0212,-0.0213,-0.0196,-0.0187,-0.018,-0.0161,-0.0144,-0.0122,-0.0114,-0.0109,-0.0075,-0.0067,-0.0085,-0.0023,-0.0039,-0.0035,-0.0029,-0.0024,-0.002,-0.0017,-0.0086,0,0,0,0,0,-0.0253,-0.0245,-0.0229,-0.0218,-0.0211,-0.0184,-0.0175,-0.0156,-0.014,-0.013,-0.012,-0.0091,-0.0064,-0.0046,-0.0032,-0.0001,0.0038,0.0027,0.0031,0.0034,0.0041,0.0113,0.0124,0.0003,0.0003,0.0003,0,0,-0.0252,-0.024,-0.0232,-0.022,-0.0199,-0.0186,-0.0179,-0.0154,-0.0133,-0.0125,-0.0099,-0.0081,-0.0054,-0.0023,-0.0005,-0.0009,0.0095,0.0038,0.004,0.0046,0.0117,0.0129,0.0139,0.0004,0.0004,0.0004,0,0,-0.0243,-0.0239,-0.0221,-0.0207,-0.0171,-0.0171,-0.0158,-0.014,-0.0126,-0.0101,-0.0078,-0.0045,-0.0021,0.0008,0.0028,0.0066,0.0109,0.0081,0.011,0.0179,0.019,0.0199,0.0287,0.0304,0.0089,0.0089,0.0089,0,-0.0241,-0.0214,-0.0216,-0.019,-0.0168,-0.0161,-0.0131,-0.0127,-0.0101,-0.0071,-0.009,-0.0015,-0.0005,0.0067,0.0072,0.0076,0.0131,0.0086,0.0185,0.0195,0.0205,0.0292,0.0311,0.009,0.009,0.009,0.009,0,-0.0214,-0.0182,-0.0174,-0.0139,-0.0126,-0.0104,-0.0091,-0.0075,-0.0061,-0.0042,0.0018,0.0023,0.008,0.0085,0.0084,0.0171,0.0195,0.0176,0.0171,0.0218,0.0307,0.0327,0.0092,0.0091,0.0091,0.0091,0,0,-0.0223,-0.0169,-0.0153,-0.0108,-0.0091,-0.0068,-0.0046,-0.0013,0.0045,0.0038,0.0116,0.0126,0.0148,0.0172,0.0188,0.023,0.0336,0.0233,0.0236,0.0318,0.052,0.0624,0.0655,0.0341,0.0344,0.0346,0.0564,0,-0.019,-0.0126,-0.0114,-0.0042,-0.0009,0.0005,0.0033,0.0074,0.0095,0.0157,0.0175,0.0246,0.0178,0.0237,0.0258,0.0328,0.0385,0.0281,0.0464,0.047,0.0554,0.068,0.0468,0.0652,0.0583,0.0586,0.0588,0,-0.0151,-0.0113,-0.0041,0.004,0.0058,0.0094,0.0173,0.0202,0.0269,0.0303,0.0352,0.0373,0.0446,0.0379,0.0496,0.044,0.0483,0.0512,0.0521,0.0624,0.061,0.059,0.069,0.0621,0.0618,0.0616,0.0614,0,-0.0123,-0.0048,0.0014,0.0039,0.0107,0.016,0.0195,0.0262,0.033,0.0422,0.0509,0.0546,0.0643,0.0652,0.0704,0.062,0.0852,0.0747,0.0879,0.0887,0.0747,0.074,0.0841,0.084,0.084,0.0839,0.0839,0,-0.0093,-0.0024,0.0044,0.0085,0.0179,0.0219,0.0329,0.0373,0.0481,0.0603,0.0605,0.0739,0.072,0.0836,0.0803,0.0949,0.0945,0.0932,0.0967,0.0753,0.0744,0.0728,0.0712,0.0847,0.0846,0.0844,0.0843,0,-0.0044,-0.0009,0.0079,0.0165,0.02,0.028,0.0411,0.0502,0.0598,0.0769,0.0823,0.0952,0.1124,0.113,0.1223,0.1157,0.1228,0.1278,0.1051,0.1057,0.1177,0.1159,0.1423,0.1429,0.1434,0.1438,0.1442,0,-0.0006,0.0035,0.014,0.0204,0.0254,0.0366,0.0451,0.0551,0.0663,0.091,0.102,0.125,0.1375,0.1571,0.1505,0.1527,0.1503,0.139,0.1173,0.1238,0.1245,0.1219,0.1195,0.0989,0.0988,0.0988,0.0987,0,0.0056,0.0091,0.0157,0.027,0.0374,0.0482,0.0618,0.071,0.0865,0.1013,0.1261,0.138,0.1586,0.1553,0.1628,0.1564,0.1349,0.1391,0.1547,0.0895,0.0852,0.0851,0.0837,0.0984,0.0984,0.0984,0.0985,0.0985,0.0111,0.016,0.0236,0.0352,0.0461,0.0583,0.0662,0.0806,0.0962,0.1146,0.1307,0.1433,0.1428,0.1454,0.1451,0.1436,0.1471,0.1309,0.1299,0.1292,0.1225,0.1195,0.1378,0.1381,0.1383,0.1385,0.1387,0,0.0177,0.0227,0.0316,0.0438,0.0547,0.0612,0.0768,0.0809,0.0955,0.1129,0.1264,0.1153,0.1171,0.1264,0.1209,0.1194,0.1026,0.1171,0.0908,0.0912,0.0916,0.0819,0.0871,0.0871,0.087,0.087,0,0,0.0214,0.0287,0.0316,0.0482,0.0584,0.0702,0.0778,0.0821,0.0911,0.0971,0.1044,0.1079,0.1181,0.1002,0.0958,0.0962,0.0923,0.0905,0.1299,0.0992,0.0996,0.0966,0.0821,0,0,0,0,0]},{"header":{"parameterUnit":"m.s-1","parameterCategory":2,"la1":30.2991,"la2":30.254,"lo1":-89.0895,"lo2":-89.0444,"dy":0.0017,"dx":0.0017,"nx":28,"ny":28,"refTime":"2025-07-16T03:00:00:Z","depth":"2","parameterNumber":3,"parameterNumberName":"V-component_of_CURRENTS"},"data":[0,0,0,0,0,0,0,0,0,0,0,0,0,0,0,0,0,0,0,0,0,0,0,0,0,0,0,0,0,0,0,0,0,0,0,0,0,0,0,0,0,0,0,0,0,0,0,0,0,0,0,0,0,0,0,0,0,0,0.0401,0.04,0,0.0273,0.0271,0.0269,0.0167,0.0166,0.0166,0.0165,-0.0053,-0.0059,-0.0064,0,0,0,0,0,0,0,0,0,0,0,0,0,0.042,0.0421,0.0401,0.04,0.0398,0.0273,0.0271,0.0268,0.0167,0.0166,0.0166,0.0165,-0.0052,-0.0058,-0.0064,0,0,0,0,0,0,0,0,0,0,0,0,0,0.0359,0.0421,0.0401,0.0337,0.033,0.0273,0.027,0.0268,0.0167,0.0166,0.0166,0.0165,-0.005,-0.0057,-0.0065,-0.01,0,0,-0.009,-0.0093,0,0,0,0,0,0,0,0,0.0363,0.0358,0.0347,0.0341,0.0334,0.024,0.0197,0.0142,0.0167,0.0223,0.0165,0.0164,0.0041,0.0025,-0.0004,-0.0111,-0.012,-0.0091,-0.0096,-0.0099,-0.0101,0,0,0,0,0,0,0,0.0367,0.0362,0.0344,0.0347,0.0338,0.0268,0.0259,0.0186,0.0131,0.0218,0.0212,0.0207,0.0035,0.0004,-0.001,-0.0123,-0.009,-0.0098,-0.0103,-0.0106,-0.0324,-0.0325,0,0,0,0,0,0,0.0403,0.0367,0.0348,0.0341,0.0353,0.027,0.0259,0.0266,0.0134,0.0115,0.0208,0.0203,0.0018,-0.0001,-0.0018,-0.0094,-0.0099,-0.0106,-0.0111,-0.0323,-0.0325,-0.0326,0,0,0,0,0,0,0.0404,0.0403,0.0353,0.0354,0.0344,0.0272,0.0279,0.0264,0.0218,0.0128,0.0106,0.0177,0.0017,-0.0007,-0.0092,-0.0102,-0.011,-0.0117,-0.0322,-0.0324,-0.0325,-0.0229,0,0,0,0,0,0,0.0405,0.0404,0.0403,0.0358,0.0345,0.032,0.028,0.0262,0.022,0.0212,0.0094,0.0074,0.0014,-0.0079,-0.0099,-0.0114,-0.0124,-0.0321,-0.0323,-0.0325,-0.0231,-0.0227,-0.0223,0,0,0,0,0,0.0407,0.0406,0.0404,0.0401,0.0353,0.032,0.0306,0.0247,0.022,0.0201,0.0123,0.0077,-0.0106,-0.0086,-0.011,-0.0127,-0.032,-0.0322,-0.0324,-0.0232,-0.0227,-0.0223,0,0,0,0,0,0,0.0391,0.0396,0.0392,0.0387,0.0362,0.0305,0.0274,0.0246,0.0169,0.0151,0.0065,0.0039,-0.0037,-0.01,-0.0076,-0.0197,-0.0221,-0.0228,-0.0143,-0.014,-0.0136,-0.0111,-0.013,0,0,0,0,0,0.04,0.0408,0.0395,0.0385,0.0378,0.0328,0.03,0.0271,0.0209,0.0174,0.0103,0.0014,-0.0063,-0.0113,-0.0187,-0.0256,-0.0296,-0.0285,-0.0281,-0.0277,-0.0276,-0.0341,-0.0342,-0.0333,-0.0333,-0.0333,0,0,0.0387,0.0391,0.0391,0.0384,0.0352,0.0338,0.0306,0.0271,0.025,0.0161,0.0094,0.0026,-0.0077,-0.0148,-0.0189,-0.0204,-0.0299,-0.028,-0.0275,-0.0276,-0.0343,-0.0344,-0.0344,-0.0334,-0.0334,-0.0334,0,0,0.0359,0.0376,0.0368,0.0363,0.0341,0.0328,0.0324,0.0279,0.0247,0.0193,0.0121,0.0054,-0.0065,-0.0132,-0.0185,-0.021,-0.0271,-0.0244,-0.0214,-0.0277,-0.0277,-0.0278,-0.0307,-0.0312,-0.0249,-0.0248,-0.0248,0,0.0338,0.0349,0.0353,0.0346,0.0346,0.033,0.032,0.029,0.0222,0.0197,0.0182,0.002,-0.0053,-0.0149,-0.0154,-0.0199,-0.0238,-0.0214,-0.0268,-0.027,-0.0273,-0.0303,-0.0309,-0.0244,-0.0245,-0.0245,-0.0245,0,0.0321,0.032,0.0313,0.0322,0.0315,0.0311,0.03,0.0279,0.0258,0.0227,0.0149,0.006,-0.0037,-0.0069,-0.012,-0.0187,-0.0208,-0.0244,-0.0266,-0.0267,-0.03,-0.0308,-0.0238,-0.0239,-0.0241,-0.0242,0,0,0.0285,0.0306,0.0294,0.0308,0.0317,0.0312,0.0295,0.028,0.0264,0.021,0.0174,0.0063,0.0026,-0.0036,-0.0108,-0.0158,-0.0193,-0.0204,-0.021,-0.021,-0.0314,-0.0286,-0.0292,-0.0242,-0.0244,-0.0245,-0.0319,0,0.0267,0.0271,0.0283,0.0282,0.0294,0.0302,0.0293,0.0274,0.0255,0.0221,0.0144,0.0082,0.0033,-0.0009,-0.0067,-0.0172,-0.0215,-0.0169,-0.0335,-0.0339,-0.0295,-0.0301,-0.0312,-0.0376,-0.0327,-0.0328,-0.0329,0,0.024,0.026,0.0264,0.0297,0.03,0.0295,0.0306,0.0301,0.0259,0.0241,0.0179,0.0119,0.0029,0.0,-0.016,-0.0132,-0.0212,-0.0277,-0.0283,-0.0298,-0.0327,-0.0377,-0.0393,-0.0344,-0.0342,-0.0341,-0.034,0,0.0227,0.0241,0.0259,0.0271,0.0299,0.0293,0.031,0.0291,0.0309,0.0254,0.0262,0.0132,0.009,-0.0044,-0.017,-0.0177,-0.0326,-0.0359,-0.0404,-0.0402,-0.0465,-0.0465,-0.0459,-0.0459,-0.0459,-0.0459,-0.0458,0,0.0222,0.0224,0.0253,0.0262,0.0285,0.03,0.0319,0.0312,0.0325,0.0368,0.0273,0.0281,0.0079,-0.0023,-0.0159,-0.0296,-0.0325,-0.0394,-0.0425,-0.0429,-0.0426,-0.0449,-0.0447,-0.0461,-0.0461,-0.046,-0.046,0,0.0186,0.0209,0.0228,0.026,0.0275,0.0286,0.0358,0.0393,0.0395,0.045,0.0444,0.0378,0.0259,0.0065,-0.0142,-0.0256,-0.0411,-0.0451,-0.0419,-0.0444,-0.0446,-0.0438,-0.0515,-0.0515,-0.0514,-0.0514,-0.0514,0,0.017,0.0175,0.0219,0.0248,0.0259,0.0303,0.0358,0.0408,0.0481,0.0536,0.0583,0.0485,0.0455,0.0163,-0.009,-0.0336,-0.0373,-0.0487,-0.0499,-0.0431,-0.0454,-0.0447,-0.044,-0.0544,-0.0545,-0.0545,-0.0545,0,0.0139,0.0145,0.0174,0.0241,0.0294,0.0393,0.0486,0.0566,0.0664,0.0721,0.0819,0.0794,0.0534,0.0259,-0.0093,-0.0242,-0.0456,-0.0491,-0.0468,-0.0509,-0.0461,-0.0482,-0.0475,-0.0546,-0.0545,-0.0545,-0.0545,-0.0545,0.0107,0.0127,0.0178,0.0245,0.0328,0.0493,0.0619,0.0754,0.0902,0.1012,0.0963,0.088,0.05,0.0034,-0.019,-0.0403,-0.0397,-0.053,-0.053,-0.053,-0.05,-0.0453,-0.0529,-0.0529,-0.0529,-0.0529,-0.0529,0,0.0097,0.0142,0.0198,0.032,0.0455,0.0496,0.0725,0.0882,0.1102,0.1067,0.1101,0.0662,0.0354,0.0019,-0.0293,-0.0495,-0.0506,-0.0554,-0.0568,-0.0567,-0.0566,-0.0538,-0.0578,-0.0578,-0.0578,-0.0578,0,0,0.0091,0.0157,0.0207,0.0418,0.0525,0.0775,0.0934,0.1135,0.1184,0.1136,0.0984,0.0717,0.0307,-0.0001,-0.0278,-0.0393,-0.0409,-0.0403,-0.0351,-0.0333,-0.0328,-0.0549,-0.0505,0,0,0,0,0]}],[{"header":{"parameterUnit":"m.s-1","parameterCategory":2,"la1":30.2991,"la2":30.254,"lo1":-89.0895,"lo2":-89.0444,"dy":0.0017,"dx":0.0017,"nx":28,"ny":28,"refTime":"2025-07-16T03:00:00:Z","depth":"4","parameterNumber":2,"parameterNumberName":"U-component_of_CURRENTS"},"data":[0,0,0,0,0,0,0,0,0,0,0,0,0,0,0,0,0,0,0,0,0,0,0,0,0,0,0,0,0,0,0,0,0,0,0,0,0,0,0,0,0,0,0,0,0,0,0,0,0,0,0,0,0,0,0,0,0,0,0.0136,0.0136,0,0.0154,0.0154,0.0154,0.0159,0.0158,0.0158,0.0158,0.0102,0.01,0.0099,0,0,0,0,0,0,0,0,0,0,0,0,0,0.0107,0.0107,0.0135,0.0136,0.0136,0.0154,0.0154,0.0154,0.0159,0.0158,0.0158,0.0158,0.0102,0.01,0.0099,0,0,0,0,0,0,0,0,0,0,0,0,0,0.0121,0.0107,0.0135,0.014,0.0141,0.0154,0.0154,0.0154,0.0159,0.0158,0.0158,0.0158,0.0103,0.0101,0.0099,0.0089,0,0,0.0092,0.0091,0,0,0,0,0,0,0,0,0.0121,0.0122,0.0139,0.014,0.0141,0.0154,0.0123,0.0129,0.0159,0.0152,0.0158,0.0158,0.0112,0.011,0.0114,0.0086,0.0083,0.0092,0.0091,0.009,0.0089,0,0,0,0,0,0,0,0.0119,0.0122,0.0142,0.014,0.0141,0.0143,0.0145,0.0125,0.0131,0.0152,0.0153,0.0155,0.0112,0.0116,0.0113,0.0083,0.0092,0.009,0.0089,0.0088,-0.0036,-0.0038,0,0,0,0,0,0,0.0118,0.0121,0.0142,0.0143,0.013,0.0143,0.0145,0.015,0.0133,0.0131,0.0155,0.0155,0.012,0.0115,0.011,0.005,0.009,0.0088,0.0087,-0.0034,-0.0037,-0.0039,0,0,0,0,0,0,0.0117,0.012,0.0141,0.0132,0.0135,0.0144,0.0149,0.015,0.0155,0.0136,0.0133,0.0159,0.012,0.0113,0.009,0.005,0.0087,0.0085,-0.0032,-0.0035,-0.0038,-0.0041,0,0,0,0,0,0,0.0116,0.0119,0.013,0.0132,0.0136,0.0152,0.0149,0.0151,0.0157,0.0157,0.0138,0.0133,0.0119,0.0093,0.0088,0.0047,0.0083,-0.0029,-0.0033,-0.0037,-0.0038,-0.0043,-0.0048,0,0,0,0,0,0.0115,0.0124,0.013,0.0133,0.0147,0.0153,0.0155,0.016,0.0157,0.0163,0.0144,0.0133,0.0064,0.0091,0.0085,0.0043,-0.0027,-0.0032,-0.0036,-0.0036,-0.0042,-0.0048,0,0,0,0,0,0,0.0117,0.0126,0.0132,0.0144,0.0151,0.0153,0.016,0.0161,0.0153,0.0147,0.0129,0.0122,0.0078,0.0062,0.0093,-0.0009,0.0007,0.0001,0.001,0.0003,-0.0002,0.0037,0.0081,0,0,0,0,0,0.0123,0.0129,0.0139,0.0147,0.0152,0.0156,0.0161,0.0162,0.0153,0.0151,0.0132,0.0095,0.0054,0.0034,0.0003,-0.0036,-0.001,-0.0078,-0.0083,-0.0086,-0.0063,-0.0067,-0.0069,-0.0054,-0.0054,-0.0054,0,0,0.0121,0.013,0.0132,0.0148,0.0152,0.0162,0.0159,0.0162,0.0163,0.0143,0.0129,0.0086,0.0041,-0.0009,-0.0033,-0.0026,-0.0076,-0.0092,-0.0095,-0.0068,-0.0072,-0.0072,-0.0073,-0.0057,-0.0056,-0.0056,0,0,0.0124,0.0133,0.0142,0.0146,0.0156,0.0164,0.0165,0.0164,0.0159,0.0137,0.0108,0.0064,0.0002,-0.0029,-0.0057,-0.0106,-0.0099,-0.0154,-0.0148,-0.0154,-0.0153,-0.0153,-0.0101,-0.0096,-0.016,-0.016,-0.016,0,0.0126,0.014,0.0145,0.0154,0.0159,0.0165,0.0175,0.0173,0.016,0.0153,0.0129,0.004,-0.0001,-0.0051,-0.0088,-0.0113,-0.0103,-0.0116,-0.0155,-0.0154,-0.0154,-0.0101,-0.0096,-0.0161,-0.0161,-0.0161,-0.0161,0,0.0129,0.0146,0.0148,0.0166,0.0174,0.0177,0.018,0.0176,0.0159,0.0153,0.01,0.0043,-0.0009,-0.0057,-0.0093,-0.0135,-0.0123,-0.0153,-0.0126,-0.0154,-0.0098,-0.0092,-0.0162,-0.0162,-0.0162,-0.0161,0,0,0.0117,0.0149,0.0148,0.0164,0.0177,0.0184,0.0186,0.0195,0.0197,0.0155,0.0146,0.0046,0.0012,-0.0023,-0.0084,-0.0104,-0.0103,-0.0141,-0.0141,-0.0064,-0.0082,-0.0014,-0.0,-0.0155,-0.0155,-0.0155,-0.0035,0,0.0121,0.0146,0.0159,0.0182,0.0197,0.0201,0.0206,0.0208,0.0194,0.0187,0.0132,0.0087,0.0025,-0.0027,-0.0054,-0.0102,-0.0093,-0.013,-0.0088,-0.0084,-0.0,0.0007,-0.0154,-0.003,-0.0029,-0.0028,-0.0027,0,0.0117,0.0139,0.0162,0.0199,0.0205,0.0218,0.023,0.0232,0.0228,0.0205,0.0167,0.0129,0.0081,0.0026,-0.0008,-0.0039,-0.0053,-0.0071,-0.0068,0.0007,-0.0006,-0.0006,-0.0015,-0.0016,-0.0017,-0.0018,-0.0019,0,0.0099,0.014,0.0163,0.0168,0.0205,0.0214,0.0231,0.0235,0.0241,0.0216,0.0213,0.0164,0.0137,0.0096,0.0059,0.0006,0.0063,-0.0009,0.0069,0.0076,-0.0017,-0.0019,0.0007,0.0007,0.0007,0.0007,0.0006,0,0.009,0.0107,0.0158,0.0162,0.0192,0.0211,0.0232,0.0232,0.0245,0.0263,0.0216,0.0219,0.0143,0.0162,0.0111,0.014,0.0115,0.0102,0.0109,-0.0021,-0.0025,-0.001,-0.0014,0.0011,0.001,0.0009,0.0008,0,0.0057,0.0089,0.0117,0.0164,0.0183,0.0193,0.0245,0.0257,0.0263,0.0287,0.0277,0.0273,0.028,0.0272,0.0245,0.0231,0.0233,0.026,0.0197,0.0193,0.0237,0.0231,0.0337,0.0341,0.0343,0.0346,0.0348,0,0.0044,0.0052,0.0108,0.0131,0.0154,0.0188,0.0213,0.0245,0.0266,0.0321,0.0335,0.0372,0.0364,0.0422,0.0381,0.0385,0.036,0.0395,0.0241,0.0275,0.027,0.026,0.025,0.0352,0.0353,0.0354,0.0355,0,0.0011,0.0026,0.0049,0.0103,0.0139,0.0185,0.0232,0.0259,0.0303,0.0324,0.0387,0.0413,0.0466,0.0449,0.0501,0.0472,0.0372,0.0423,0.0413,0.0269,0.0294,0.0284,0.0272,0.0364,0.0363,0.0362,0.0361,0,-0.0021,-0.0011,0.0027,0.0075,0.0125,0.0181,0.0209,0.0271,0.0309,0.038,0.041,0.0448,0.0475,0.0502,0.0526,0.054,0.0483,0.0442,0.043,0.0419,0.0385,0.0426,0.0569,0,0,0,0,0,-0.0052,-0.003,0.0008,0.0072,0.0124,0.0163,0.0226,0.0256,0.032,0.0365,0.0394,0.0438,0.049,0.0506,0.0526,0.0535,0.0473,0.0558,0.0416,0.0419,0.0408,0.0356,0,0,0,0,0,0,-0.0067,-0.0042,-0.0004,0.0066,0.0113,0.0176,0.0217,0.026,0.0295,0.0355,0.0375,0.043,0.0465,0.0469,0.0518,0.0527,0.0437,0.0589,0.059,0.0425,0.0415,0.0406,0.0349,0,0,0,0,0]},{"header":{"parameterUnit":"m.s-1","parameterCategory":2,"la1":30.2991,"la2":30.254,"lo1":-89.0895,"lo2":-89.0444,"dy":0.0017,"dx":0.0017,"nx":28,"ny":28,"refTime":"2025-07-16T03:00:00:Z","depth":"4","parameterNumber":3,"parameterNumberName":"V-component_of_CURRENTS"},"data":[0,0,0,0,0,0,0,0,0,0,0,0,0,0,0,0,0,0,0,0,0,0,0,0,0,0,0,0,0,0,0,0,0,0,0,0,0,0,0,0,0,0,0,0,0,0,0,0,0,0,0,0,0,0,0,0,0,0,-0.0342,-0.0343,0,-0.04,-0.04,-0.0401,-0.0473,-0.0474,-0.0475,-0.0476,-0.0575,-0.0577,-0.0578,0,0,0,0,0,0,0,0,0,0,0,0,0,-0.0304,-0.0305,-0.0342,-0.0343,-0.0343,-0.0399,-0.0401,-0.0402,-0.0473,-0.0474,-0.0475,-0.0476,-0.0574,-0.0576,-0.0579,0,0,0,0,0,0,0,0,0,0,0,0,0,-0.034,-0.0305,-0.0342,-0.0384,-0.0388,-0.0399,-0.0401,-0.0402,-0.0473,-0.0474,-0.0476,-0.0477,-0.0574,-0.0576,-0.0579,-0.0569,0,0,-0.0587,-0.0588,0,0,0,0,0,0,0,0,-0.0338,-0.0341,-0.0377,-0.0381,-0.0385,-0.0428,-0.0423,-0.0459,-0.0473,-0.0444,-0.0476,-0.0477,-0.0527,-0.0533,-0.0545,-0.0574,-0.0578,-0.0587,-0.0589,-0.059,-0.0591,0,0,0,0,0,0,0,-0.0335,-0.0339,-0.0368,-0.0377,-0.0382,-0.0402,-0.0409,-0.043,-0.048,-0.0446,-0.0451,-0.0452,-0.053,-0.0542,-0.0548,-0.0579,-0.0587,-0.059,-0.0591,-0.0593,-0.0709,-0.071,0,0,0,0,0,0,-0.032,-0.0337,-0.0366,-0.0369,-0.0361,-0.0402,-0.0409,-0.0415,-0.0479,-0.0489,-0.0451,-0.0455,-0.0537,-0.0544,-0.0551,-0.0611,-0.059,-0.0593,-0.0594,-0.0707,-0.0709,-0.0711,0,0,0,0,0,0,-0.0319,-0.0322,-0.0364,-0.0352,-0.0358,-0.0401,-0.0407,-0.0416,-0.0457,-0.0482,-0.0493,-0.0486,-0.0538,-0.0548,-0.0592,-0.0613,-0.0594,-0.0597,-0.0706,-0.0708,-0.071,-0.0687,0,0,0,0,0,0,-0.0318,-0.0322,-0.0329,-0.0351,-0.0358,-0.0378,-0.0406,-0.0416,-0.0452,-0.0459,-0.0514,-0.0523,-0.054,-0.0587,-0.0594,-0.0616,-0.0599,-0.0704,-0.0707,-0.0709,-0.0686,-0.0688,-0.069,0,0,0,0,0,-0.0317,-0.0317,-0.0329,-0.0333,-0.0364,-0.0378,-0.0384,-0.042,-0.0453,-0.0465,-0.0509,-0.0523,-0.0611,-0.059,-0.0598,-0.0621,-0.0702,-0.0706,-0.0709,-0.0685,-0.0688,-0.069,0,0,0,0,0,0,-0.0307,-0.0325,-0.0338,-0.0346,-0.0363,-0.0389,-0.0404,-0.0433,-0.0477,-0.05,-0.0531,-0.0542,-0.0592,-0.0612,-0.0589,-0.0667,-0.0664,-0.0669,-0.0643,-0.0646,-0.0648,-0.0629,-0.0601,0,0,0,0,0,-0.0304,-0.0314,-0.033,-0.034,-0.0347,-0.0382,-0.0398,-0.0427,-0.0461,-0.0485,-0.0528,-0.0576,-0.0607,-0.063,-0.0664,-0.0696,-0.0694,-0.0723,-0.0725,-0.0727,-0.072,-0.0726,-0.0727,-0.0721,-0.0721,-0.0721,0,0,-0.03,-0.0315,-0.0319,-0.0339,-0.036,-0.037,-0.0397,-0.0429,-0.045,-0.0487,-0.0546,-0.0585,-0.0619,-0.0659,-0.0685,-0.068,-0.073,-0.0731,-0.0731,-0.0723,-0.0729,-0.0729,-0.073,-0.0724,-0.0723,-0.0723,0,0,-0.0292,-0.0314,-0.0315,-0.0333,-0.0364,-0.038,-0.0393,-0.0439,-0.0473,-0.0521,-0.0557,-0.06,-0.0665,-0.0681,-0.0697,-0.073,-0.0741,-0.0764,-0.0755,-0.0762,-0.0761,-0.076,-0.0755,-0.0754,-0.0764,-0.0764,-0.0764,0,-0.0289,-0.0296,-0.0318,-0.0329,-0.035,-0.0386,-0.04,-0.0425,-0.0487,-0.0513,-0.0544,-0.0637,-0.0667,-0.0692,-0.0711,-0.0731,-0.0739,-0.0736,-0.076,-0.076,-0.0759,-0.0754,-0.0754,-0.0763,-0.0763,-0.0763,-0.0763,0,-0.0282,-0.0293,-0.0299,-0.0323,-0.0348,-0.0368,-0.0402,-0.0435,-0.0489,-0.0523,-0.0587,-0.0628,-0.068,-0.0703,-0.0717,-0.074,-0.0748,-0.0758,-0.0742,-0.0758,-0.0753,-0.0752,-0.0762,-0.0762,-0.0762,-0.0763,0,0,-0.0266,-0.0285,-0.0292,-0.0303,-0.0355,-0.037,-0.0402,-0.0434,-0.0458,-0.0528,-0.0564,-0.0623,-0.0664,-0.0684,-0.0714,-0.0721,-0.0726,-0.0745,-0.0745,-0.0719,-0.074,-0.0696,-0.0691,-0.0746,-0.0746,-0.0746,-0.0734,0,-0.0257,-0.0262,-0.0288,-0.0308,-0.0316,-0.0363,-0.0388,-0.0433,-0.0478,-0.0518,-0.0565,-0.0616,-0.065,-0.0683,-0.0696,-0.0725,-0.0726,-0.0728,-0.0747,-0.0747,-0.0689,-0.0689,-0.0746,-0.0734,-0.0733,-0.0733,-0.0733,0,-0.0253,-0.0255,-0.0268,-0.03,-0.0312,-0.0336,-0.0388,-0.0417,-0.0466,-0.0508,-0.0558,-0.0602,-0.0635,-0.0661,-0.0697,-0.0704,-0.072,-0.0733,-0.0733,-0.0696,-0.0702,-0.072,-0.0732,-0.0733,-0.0733,-0.0733,-0.0733,0,-0.0239,-0.025,-0.026,-0.0275,-0.0312,-0.0337,-0.0367,-0.0423,-0.0447,-0.0502,-0.0526,-0.0581,-0.0608,-0.0644,-0.0674,-0.0698,-0.0694,-0.0727,-0.0694,-0.0691,-0.0742,-0.0743,-0.0734,-0.0734,-0.0734,-0.0734,-0.0735,0,-0.0233,-0.0241,-0.025,-0.0261,-0.0278,-0.0329,-0.0361,-0.0394,-0.0441,-0.0453,-0.0524,-0.0528,-0.0608,-0.0618,-0.0656,-0.066,-0.0678,-0.0683,-0.0683,-0.0736,-0.0736,-0.0742,-0.0743,-0.0734,-0.0734,-0.0734,-0.0734,0,-0.0232,-0.0234,-0.0238,-0.0263,-0.0274,-0.0297,-0.0346,-0.0359,-0.0413,-0.0423,-0.044,-0.049,-0.0511,-0.0559,-0.0597,-0.0621,-0.0637,-0.0628,-0.0657,-0.0661,-0.0641,-0.0642,-0.0614,-0.0612,-0.0611,-0.061,-0.0609,0,-0.0232,-0.0231,-0.0236,-0.0234,-0.025,-0.0279,-0.0295,-0.0347,-0.0351,-0.038,-0.0372,-0.0401,-0.043,-0.0441,-0.0508,-0.0562,-0.057,-0.0579,-0.0639,-0.0624,-0.0628,-0.0631,-0.0633,-0.0606,-0.0606,-0.0606,-0.0605,0,-0.0232,-0.0233,-0.0231,-0.0219,-0.0227,-0.0233,-0.0254,-0.025,-0.0289,-0.0315,-0.0299,-0.0331,-0.0342,-0.0401,-0.043,-0.0473,-0.0584,-0.0565,-0.057,-0.0626,-0.0615,-0.062,-0.0624,-0.06,-0.0601,-0.0602,-0.0602,0,-0.0232,-0.0224,-0.0212,-0.0204,-0.0202,-0.0198,-0.021,-0.0205,-0.0218,-0.0241,-0.0216,-0.0261,-0.029,-0.035,-0.0373,-0.0416,-0.0454,-0.0483,-0.0493,-0.0499,-0.0478,-0.0448,-0.037,0,0,0,0,0,-0.0234,-0.0215,-0.0198,-0.0184,-0.0177,-0.0181,-0.0184,-0.0193,-0.02,-0.0173,-0.0201,-0.0206,-0.0263,-0.0294,-0.0328,-0.0375,-0.0475,-0.0419,-0.0517,-0.0573,-0.0578,-0.0569,0,0,0,0,0,0,-0.0229,-0.0211,-0.0191,-0.0168,-0.0157,-0.0155,-0.0157,-0.0162,-0.0151,-0.0157,-0.0183,-0.0206,-0.0263,-0.0234,-0.0323,-0.0339,-0.0405,-0.0452,-0.0452,-0.0569,-0.0575,-0.0579,-0.0572,0,0,0,0,0]}]]